Time,TemperatureF,DewpointF,PressureIn,WindDirection,WindDirectionDegrees,WindSpeedMPH,WindSpeedGustMPH,Humidity,HourlyPrecipIn,Conditions,Clouds,dailyrainin,SoftwareType,DateUTC
2013-10-16 00:21:00,70.0,34.0,29.95,NE,50,3.0,-999.0,26,-99.99,,,-99.99,,2013-10-16 07:21:00,
2013-10-16 00:42:00,70.0,34.0,29.95,NE,45,2.0,-999.0,26,-99.99,,,-99.99,,2013-10-16 07:42:00,
2013-10-16 00:53:00,70.0,34.0,29.95,NE,44,2.0,-999.0,26,-99.99,,,-99.99,,2013-10-16 07:53:00,
2013-10-16 01:41:00,70.0,34.0,29.95,NE,42,2.0,-999.0,27,-99.99,,,-99.99,,2013-10-16 08:41:00,
2013-10-16 04:22:00,69.0,34.0,29.96,NE,45,2.0,-999.0,27,-99.99,,,-99.99,,2013-10-16 11:22:00,
2013-10-16 04:42:00,69.0,34.0,29.96,NE,45,3.0,-999.0,27,-99.99,,,-99.99,,2013-10-16 11:42:00,
2013-10-16 07:41:00,69.0,34.0,29.98,SSE,157,2.0,-999.0,27,-99.99,,,-99.99,,2013-10-16 14:41:00,
2013-10-16 07:52:00,68.0,34.0,29.99,East,92,2.0,-999.0,28,-99.99,,,-99.99,,2013-10-16 14:52:00,
2013-10-16 09:42:00,72.0,41.0,30.02,East,92,0.0,-999.0,33,-99.99,,,-99.99,,2013-10-16 16:42:00,
2013-10-16 09:53:00,71.0,44.0,30.03,East,96,0.0,-999.0,38,-99.99,,,-99.99,,2013-10-16 16:53:00,
2013-10-16 10:12:00,71.0,44.0,30.03,East,97,0.0,-999.0,38,-99.99,,,-99.99,,2013-10-16 17:12:00,
2013-10-16 10:22:00,71.0,45.0,30.03,ESE,103,0.0,-999.0,40,-99.99,,,-99.99,,2013-10-16 17:22:00,
2013-10-16 10:43:00,72.0,46.0,30.03,ESE,105,0.0,-999.0,39,-99.99,,,-99.99,,2013-10-16 17:43:00,
2013-10-16 10:52:00,72.0,45.0,30.03,ESE,115,0.0,-999.0,38,-99.99,,,-99.99,,2013-10-16 17:52:00,
2013-10-16 11:11:00,72.0,44.0,30.03,SSE,155,1.0,-999.0,36,-99.99,,,-99.99,,2013-10-16 18:11:00,
2013-10-16 11:21:00,73.0,43.0,30.04,SE,137,1.0,-999.0,34,-99.99,,,-99.99,,2013-10-16 18:21:00,
2013-10-16 11:42:00,78.0,43.0,30.03,ESE,114,2.0,-999.0,29,-99.99,,,-99.99,,2013-10-16 18:42:00,
2013-10-16 11:52:00,76.0,44.0,30.04,SSE,161,1.0,-999.0,32,-99.99,,,-99.99,,2013-10-16 18:52:00,
2013-10-16 12:11:00,78.0,38.0,30.04,ESE,114,1.0,-999.0,24,-99.99,,,-99.99,,2013-10-16 19:11:00,
2013-10-16 12:21:00,81.0,37.0,30.04,East,100,1.0,-999.0,21,-99.99,,,-99.99,,2013-10-16 19:21:00,
2013-10-16 12:42:00,82.0,46.0,30.04,SE,146,1.0,-999.0,28,-99.99,,,-99.99,,2013-10-16 19:42:00,
2013-10-16 12:52:00,80.0,45.0,30.04,South,169,1.0,-999.0,29,-99.99,,,-99.99,,2013-10-16 19:52:00,
2013-10-16 13:12:00,80.0,39.0,30.03,SSE,164,0.0,-999.0,23,-99.99,,,-99.99,,2013-10-16 20:12:00,
2013-10-16 13:22:00,81.0,39.0,30.03,SSE,166,0.0,-999.0,22,-99.99,,,-99.99,,2013-10-16 20:22:00,
2013-10-16 13:43:00,81.0,37.0,30.03,SSE,167,1.0,-999.0,21,-99.99,,,-99.99,,2013-10-16 20:43:00,
2013-10-16 13:52:00,82.0,34.0,30.03,SE,143,2.0,-999.0,18,-99.99,,,-99.99,,2013-10-16 20:52:00,
2013-10-16 14:11:00,81.0,33.0,30.03,South,180,2.0,-999.0,18,-99.99,,,-99.99,,2013-10-16 21:11:00,
2013-10-16 14:23:00,80.0,34.0,30.03,SE,132,1.0,-999.0,19,-99.99,,,-99.99,,2013-10-16 21:23:00,
2013-10-16 14:44:00,79.0,34.0,30.02,SE,142,1.0,-999.0,20,-99.99,,,-99.99,,2013-10-16 21:44:00,
2013-10-16 14:54:00,79.0,36.0,30.02,ESE,109,1.0,-999.0,21,-99.99,,,-99.99,,2013-10-16 21:54:00,
2013-10-16 15:14:00,78.0,39.0,30.02,SE,126,1.0,-999.0,25,-99.99,,,-99.99,,2013-10-16 22:14:00,
2013-10-16 15:23:00,78.0,41.0,30.02,SE,141,0.0,-999.0,27,-99.99,,,-99.99,,2013-10-16 22:23:00,
2013-10-16 15:42:00,78.0,41.0,30.01,SE,132,1.0,-999.0,27,-99.99,,,-99.99,,2013-10-16 22:42:00,
2013-10-16 15:54:00,78.0,39.0,30.01,SE,140,0.0,-999.0,25,-99.99,,,-99.99,,2013-10-16 22:54:00,
2013-10-16 16:12:00,77.0,39.0,30.01,SE,146,1.0,-999.0,26,-99.99,,,-99.99,,2013-10-16 23:12:00,
2013-10-16 16:22:00,77.0,36.0,30.01,SSE,153,0.0,-999.0,23,-99.99,,,-99.99,,2013-10-16 23:22:00,
2013-10-16 16:42:00,77.0,36.0,30.01,South,179,1.0,-999.0,23,-99.99,,,-99.99,,2013-10-16 23:42:00,
2013-10-16 16:52:00,76.0,34.0,30.01,South,180,2.0,-999.0,22,-99.99,,,-99.99,,2013-10-16 23:52:00,
2013-10-16 17:01:00,76.0,34.0,30.01,South,180,2.0,-999.0,22,-99.99,,,-99.99,,2013-10-17 00:01:00,
2013-10-16 17:11:00,76.0,34.0,30.01,South,180,2.0,-999.0,22,-99.99,,,-99.99,,2013-10-17 00:11:00,
2013-10-16 17:22:00,77.0,34.0,30.01,South,170,0.0,-999.0,21,-99.99,,,-99.99,,2013-10-17 00:22:00,
2013-10-16 17:42:00,77.0,33.0,30.01,SSE,159,1.0,-999.0,20,-99.99,,,-99.99,,2013-10-17 00:42:00,
2013-10-16 17:52:00,76.0,32.0,30.01,SSE,159,0.0,-999.0,20,-99.99,,,-99.99,,2013-10-17 00:52:00,
2013-10-16 18:11:00,77.0,32.0,30.00,SSE,155,0.0,-999.0,19,-99.99,,,-99.99,,2013-10-17 01:11:00,
2013-10-16 18:22:00,77.0,30.0,30.00,SSE,155,0.0,-999.0,18,-99.99,,,-99.99,,2013-10-17 01:22:00,
2013-10-16 19:11:00,74.0,30.0,30.00,SSE,155,0.0,-999.0,20,-99.99,,,-99.99,,2013-10-17 02:11:00,
2013-10-16 19:21:00,72.0,29.0,30.00,SSE,155,0.0,-999.0,20,-99.99,,,-99.99,,2013-10-17 02:21:00,
2013-10-16 20:22:00,70.0,27.0,30.01,SSE,155,1.0,-999.0,20,-99.99,,,-99.99,,2013-10-17 03:22:00,
2013-10-16 22:23:00,68.0,29.0,30.01,ENE,61,3.0,-999.0,23,-99.99,,,-99.99,,2013-10-17 05:23:00,
2013-10-16 22:42:00,68.0,29.0,30.01,ENE,60,1.0,-999.0,23,-99.99,,,-99.99,,2013-10-17 05:42:00,
2013-10-16 23:42:00,68.0,29.0,30.01,NNE,32,1.0,-999.0,23,-99.99,,,-99.99,,2013-10-17 06:42:00,